This demonstration page uses our WeatherBlox Daily Observations layout. Learn more.

Left ArrowRight Arrow

40.92945, -100.16068

Hourly Observations for October 12, 2016

Temp ( °F °C ) Dew Point ( °F °C ) Humidity (%) Winds ( mph kmh ) Pressure ( in mb ) Visibility ( mi km ) Precip ( " mm )
12:15 am 00:15 Mostly Cloudy 44 6.8 35 1.8 71 71 NNE 13 20 30.15 1021 10 16 N/A
12:35 am 00:35 Cloudy with Light Rain 43 6.2 36 2.3 76 76 N 12 19 30.18 1022 10 16 N/A
12:55 am 00:55 Cloudy with Light Rain 43 6 37 2.6 79 79 NNE 13 20 30.18 1022 10 16 N/A
1:15 am 01:15 Cloudy 42 5.7 36 2.2 78 78 NNE 12 19 30.18 1022 10 16 N/A
1:35 am 01:35 Cloudy with Light Rain 42 5.7 36 2 77 77 N 14 22 30.21 1023 10 16 N/A
1:55 am 01:55 Cloudy with Light Rain 41 5.1 36 2 81 81 N 15 24 30.27 1025 10 16 N/A
2:15 am 02:15 Cloudy with Light Rain 40 4.5 35 1.6 82 82 N 14 22 30.27 1025 10 16 N/A
2:35 am 02:35 Cloudy with Rain 39 4.1 36 2.1 87 87 N 12 19 30.27 1025 5 8 0.03 0.76
2:55 am 02:55 Cloudy with Light Rain 39 4.1 37 2.5 89 89 NNW 12 19 30.27 1025 5 8 0.08 2.03
3:15 am 03:15 Cloudy with Light Rain 39 4 36 2.1 88 88 N 16 26 30.27 1025 10 16 0.01 0.25
3:35 am 03:35 Cloudy with Light Rain 39 4 35 1.8 86 86 N 13 20 30.27 1025 10 16 0.01 0.25
3:55 am 03:55 Cloudy with Light Rain 39 3.7 35 1.6 86 86 NNW 13 20 30.27 1025 7 11 0.03 0.76
4:15 am 04:15 Cloudy with Rain 39 3.7 35 1.5 86 86 NNW 12 19 30.30 1026 10 16 N/A
4:35 am 04:35 Cloudy with Rain 38 3.5 34 1 84 84 N 15 24 30.30 1026 10 16 0.01 0.25
4:55 am 04:55 Cloudy with Light Rain 38 3.3 34 1 85 85 N 15 24 30.27 1025 10 16 0.03 0.76
5:15 am 05:15 Partly Cloudy with Rain 38 3.2 34 1.2 87 87 N 9 15 30.27 1025 10 16 N/A
5:35 am 05:35 Mostly Cloudy with Rain 38 3.5 34 1 84 84 N 12 19 30.30 1026 10 16 N/A
5:55 am 05:55 Cloudy with Light Rain 38 3.2 34 1.1 86 86 N 12 19 30.30 1026 10 16 N/A
6:15 am 06:15 Cloudy 38 3.5 34 1 84 84 NNW 9 15 30.33 1027 10 16 0.01 0.25
6:35 am 06:35 Mostly Cloudy 38 3.5 34 1 84 84 N 10 17 30.33 1027 10 16 0.01 0.25
6:55 am 06:55 Partly Cloudy 38 3.3 33 0.8 84 84 N 8 13 30.33 1027 10 16 0.01 0.25
7:15 am 07:15 Partly Cloudy 37 3 33 0.7 85 85 N 8 13 30.33 1027 10 16 N/A
7:35 am 07:35 Partly Cloudy 37 3 33 0.7 85 85 N 10 17 30.33 1027 10 16 N/A
7:55 am 07:55 Cloudy 38 3.1 34 1.1 87 87 N 9 15 30.39 1029 10 16 N/A
8:15 am 08:15 Mostly Cloudy 38 3.1 33 0.8 85 85 N 8 13 30.39 1029 10 16 N/A
8:35 am 08:35 Cloudy 38 3.3 33 0.6 83 83 N 15 24 30.42 1030 10 16 N/A
8:55 am 08:55 Cloudy 38 3.1 33 0.4 83 83 N 12 19 30.42 1030 10 16 N/A
9:15 am 09:15 Cloudy 37 2.9 32 -0.1 81 81 N 14 22 30.42 1030 10 16 N/A
9:35 am 09:35 Cloudy 38 3.5 32 undefined 78 78 N 13 20 30.45 1031 10 16 N/A
9:55 am 09:55 Mostly Cloudy 38 3.1 32 -0.1 80 80 NNW 14 22 30.45 1031 10 16 N/A
10:15 am 10:15 Cloudy 38 3.2 32 undefined 80 80 NNW 12 19 30.45 1031 10 16 N/A
10:35 am 10:35 Mostly Cloudy 39 3.7 32 undefined 77 77 N 13 20 30.45 1031 10 16 N/A
10:55 am 10:55 Cloudy 40 4.2 32 undefined 74 74 N 10 17 30.42 1030 10 16 N/A
11:15 am 11:15 Cloudy 39 4.1 32 -0.1 74 74 N 13 20 30.42 1030 10 16 N/A
11:35 am 11:35 Cloudy 40 4.6 32 undefined 72 72 NNE 10 17 30.42 1030 10 16 N/A
11:55 am 11:55 Cloudy 41 5.1 32 -0.1 69 69 N 8 13 30.42 1030 10 16 N/A
12:15 pm 12:15 Cloudy 42 5.5 33 0.3 69 69 N 10 17 30.42 1030 10 16 N/A
12:35 pm 12:35 Cloudy 42 5.5 32 -0.1 68 68 N 10 17 30.42 1030 10 16 N/A
12:55 pm 12:55 Cloudy 42 5.8 32 -0.1 66 66 N 7 11 30.42 1030 10 16 N/A
1:15 pm 13:15 Mostly Cloudy 43 6 32 -0.1 65 65 N 8 13 30.42 1030 10 16 N/A
1:35 pm 13:35 Mostly Cloudy 44 6.7 32 0.1 63 63 NNE 7 11 30.36 1028 10 16 N/A
1:55 pm 13:55 Mostly Cloudy 45 7.3 33 0.4 62 62 NW 7 11 30.36 1028 10 16 N/A
2:15 pm 14:15 Mostly Cloudy 45 7.3 32 0.1 61 61 N 6 9 30.36 1028 10 16 N/A
2:35 pm 14:35 Mostly Cloudy 47 8.2 33 0.4 58 58 NNE 7 11 30.33 1027 10 16 N/A
2:55 pm 14:55 Mostly Cloudy 46 8 32 undefined 57 57 N 8 13 30.33 1027 10 16 N/A
3:15 pm 15:15 Partly Cloudy 47 8.6 32 0.1 55 55 NNW 5 7 30.33 1027 10 16 N/A
3:35 pm 15:35 Partly Cloudy 48 9 32 0.1 54 54 NNW 6 9 30.33 1027 10 16 N/A
3:55 pm 15:55 Sunny 48 9.1 32 undefined 53 53 N 8 13 30.33 1027 10 16 N/A
4:15 pm 16:15 Sunny 49 9.3 32 -0.1 52 52 WNW 5 7 30.33 1027 10 16 N/A
4:35 pm 16:35 Sunny 49 9.4 31 -0.6 50 50 N N/A 30.27 1025 10 16 N/A
4:55 pm 16:55 Sunny 49 9.4 31 -0.4 51 51 NNW 5 7 30.27 1025 10 16 N/A
5:15 pm 17:15 Sunny 49 9.7 31 -0.4 50 50 SW 5 7 30.27 1025 10 16 N/A
5:35 pm 17:35 Sunny 49 9.7 31 -0.4 50 50 N N/A 30.27 1025 10 16 N/A
5:55 pm 17:55 Sunny 49 9.5 32 -0.2 51 51 N N/A 30.27 1025 10 16 N/A
6:15 pm 18:15 Sunny 48 9.1 31 -0.6 51 51 N N/A 30.27 1025 10 16 N/A
6:35 pm 18:35 Sunny 48 8.9 31 -0.3 53 53 N N/A 30.30 1026 10 16 N/A
6:55 pm 18:55 Sunny 47 8.4 32 0.2 57 57 N N/A 30.30 1026 10 16 N/A
7:15 pm 19:15 Clear 44 6.8 33 0.3 64 64 N N/A 30.30 1026 10 16 N/A
7:35 pm 19:35 Clear 43 6.3 32 -0.1 64 64 N N/A 30.30 1026 10 16 N/A
7:55 pm 19:55 Clear 40 4.5 32 undefined 73 73 ESE 3 6 30.33 1027 10 16 N/A
8:15 pm 20:15 Clear 39 4.1 32 0.1 75 75 SE 3 6 30.33 1027 10 16 N/A
8:35 pm 20:35 Clear 38 3.6 32 undefined 78 78 SE 3 6 30.33 1027 10 16 N/A
8:55 pm 20:55 Clear 38 3.4 32 undefined 79 79 SSE 3 6 30.33 1027 10 16 N/A
9:15 pm 21:15 Clear 36 2.3 31 -0.7 81 81 SSE 5 7 30.36 1028 10 16 N/A
9:35 pm 21:35 Clear 36 2.2 31 -0.4 83 83 SSE 5 7 30.36 1028 10 16 N/A
9:55 pm 21:55 Clear 36 2.3 32 undefined 85 85 SSE 5 7 30.36 1028 10 16 N/A
10:15 pm 22:15 Clear 35 1.8 31 -0.6 84 84 SSE 5 7 30.39 1029 10 16 N/A
10:35 pm 22:35 Clear 36 2.2 31 -0.7 81 81 SSE 6 9 30.39 1029 10 16 N/A
10:55 pm 22:55 Clear 34 1.3 30 -1.1 84 84 S 5 7 30.39 1029 10 16 N/A
11:15 pm 23:15 Clear 35 1.5 30 -0.9 84 84 SSE 5 7 30.39 1029 10 16 N/A
11:35 pm 23:35 Clear 34 1 30 -1.2 85 85 SSE 7 11 30.39 1029 10 16 N/A
11:55 pm 23:55 Clear 34 1 30 -1.1 86 86 S 6 9 30.39 1029 10 16 N/A

Powered by AerisWeather